Location: Red Deer
(52.2681°N, 113.8112°W)
Time: 19:36:00
(UTC-07:00)

N. Korean satellite - Pass Details

Date: 02 December 2022
Orbit: 407 x 442 km, 97.3° (Epoch: 05 February)

Event Time Altitude Azimuth Distance (km) Brightness Sun altitude
Rises 07:02:09 0° 3° (N) 2,530 10.0 -11.8°
Reaches altitude 10° 07:04:29 10° 349° (NNW) 1,645 8.9 -11.4°
Maximum altitude 07:07:19 23° 296° (WNW) 1,048 7.6 -11.0°
Drops below altitude 10° 07:10:07 10° 242° (WSW) 1,622 8.8 -10.6°
Sets 07:12:25 0° 228° (SW) 2,484 9.9 -10.3°
